GEFSNGP_con_maxscp_234.txt.gz
SCP
0 0 0 0 0 0 0 0 0 1 1 2 3 5 7 12 15 13 11 11 11 11 11 13 16 17 18 18 15 11 8 7 6 5 4 4 3 3 3 3 3 3 3 3
0 0 0 0 0 0 0 0 0 1 1 3 5 6 9 13 15 13 12 13 14 14 14 16 17 16 15 13 11 8 7 6 6 6 5 5 4 3 3 3 3 2 3 3
0 0 0 0 0 0 0 0 1 1 2 4 7 9 10 13 15 15 14 15 15 14 14 14 15 13 11 9 8 6 6 7 8 8 7 7 6 5 4 3 2 2 2 2
0 0 0 0 0 1 1 1 1 1 3 7 11 13 13 13 16 18 17 16 14 11 10 9 8 8 8 7 7 7 7 9 11 11 10 9 7 6 4 3 2 2 2 2
0 0 0 0 1 1 1 1 1 2 5 11 17 17 15 13 16 19 18 15 12 10 8 7 6 6 6 7 8 8 9 11 12 22 28 19 8 6 4 3 2 2 2 2
0 0 0 1 1 2 2 2 2 4 9 16 19 17 14 13 17 18 16 13 11 10 9 8 7 7 8 10 11 10 10 11 13 29 43 25 7 5 4 3 2 2 2 2
0 0 0 1 2 2 2 2 2 6 11 15 16 14 13 14 16 15 13 11 10 10 9 7 7 7 9 11 12 11 11 11 13 21 26 17 7 6 5 4 4 3 3 3
0 0 0 1 2 2 2 2 4 8 11 11 11 12 13 13 12 11 10 9 9 8 7 6 6 7 8 9 10 11 10 10 10 9 8 6 6 6 6 6 6 5 4 4
1 1 1 1 2 2 2 4 7 8 8 7 7 8 9 9 9 9 8 8 7 7 6 5 5 5 5 6 7 8 8 7 7 6 6 5 5 6 6 7 7 6 5 5
2 2 3 2 2 2 3 4 6 7 6 6 7 7 7 7 7 7 6 6 6 6 5 5 4 4 4 4 4 5 5 5 5 4 4 4 5 5 5 6 6 6 5 6
2 3 3 3 3 3 3 3 4 5 5 7 8 10 10 9 7 6 5 5 5 6 6 5 5 4 4 3 4 4 5 4 4 3 3 3 3 3 3 3 3 3 4 4
2 2 2 3 3 4 3 3 3 4 6 7 9 12 12 10 8 6 5 5 5 6 6 6 6 5 4 4 4 4 5 5 4 3 3 2 2 1 1 1 1 1 1 2
2 2 3 3 3 3 3 3 3 4 5 7 9 11 12 11 9 7 6 5 6 6 6 6 6 5 4 3 3 4 4 4 5 4 4 3 2 2 1 1 1 1 1 1
3 3 3 3 3 3 3 2 2 3 5 7 8 9 10 10 9 8 7 6 5 5 5 6 6 5 4 3 3 3 3 4 5 6 6 5 4 3 2 1 1 1 1 1
3 3 3 2 2 2 3 2 2 3 5 7 8 9 9 9 8 8 7 6 5 4 5 6 7 5 3 2 2 3 3 4 6 7 7 6 5 4 3 2 1 1 1 1
3 2 2 2 2 2 2 2 2 3 5 6 8 9 9 9 8 8 8 7 5 4 4 5 6 5 3 2 3 3 4 4 5 7 7 7 6 6 4 3 2 1 1 2
2 2 1 1 2 2 2 2 2 3 4 6 8 10 10 10 9 9 8 6 4 3 3 3 4 3 3 3 3 4 4 4 4 6 6 6 7 7 6 5 4 3 2 2
2 1 1 1 1 1 1 2 3 5 6 8 11 12 11 10 10 9 8 6 4 2 2 2 2 2 3 3 3 4 4 4 4 4 5 5 6 7 7 7 6 4 2 1
1 1 0 0 1 1 2 3 5 7 8 10 12 13 11 10 10 9 7 4 3 2 1 1 1 1 2 2 2 3 3 4 4 3 3 4 4 5 6 7 6 4 2 1
1 1 0 0 1 1 2 3 4 5 7 10 11 11 10 9 8 7 5 3 2 1 1 1 1 1 1 2 2 2 2 3 3 3 3 3 3 4 5 6 6 4 2 1
1 1 1 1 1 1 2 2 3 3 4 7 9 8 8 7 6 4 3 2 1 1 1 1 1 0 1 1 1 1 2 2 3 2 2 2 2 3 4 5 5 4 2 1
1 1 1 1 1 1 1 1 1 1 2 4 6 6 5 5 4 3 2 1 1 1 1 1 1 0 0 1 1 1 1 1 1 1 1 1 2 2 3 4 4 4 2 1
1 1 1 1 1 1 1 0 0 1 1 2 4 4 4 4 3 3 2 1 1 1 1 1 1 0 0 0 0 0 0 0 1 1 0 1 1 1 2 3 3 3 2 1
1 1 0 0 0 1 0 0 0 0 1 1 2 3 3 2 2 2 2 1 0 0 0 1 0 0 0 0 0 0 0 0 0 0 0 0 0 1 1 1 2 1 1 1
0 0 0 0 0 0 0 0 0 0 0 1 2 2 2 1 1 1 1 0 0 0 0 0 0 0 0 0 0 0 0 0 0 0 0 0 0 1 1 1 1 1 0 0
0 0 0 0 0 0 0 0 0 0 0 1 1 1 1 1 0 0 0 0 0 0 0 0 0 0 0 0 0 0 1 1 0 0 0 0 0 0 1 1 1 1 0 0
0 0 0 0 0 0 0 1 0 0 0 0 1 1 1 1 0 0 0 0 0 0 0 0 0 0 0 0 0 0 1 1 0 0 0 0 0 0 1 1 1 1 0 0

GEFSNGP_con_maxscp_240.txt.gz
SCP
0 0 0 0 0 0 0 0 0 0 0 1 1 2 2 2 2 4 5 6 6 5 5 5 6 7 8 7 6 4 4 3 3 2 2 3 3 3 3 2 2 1 1 1
0 0 0 0 0 0 0 0 0 0 0 1 2 2 2 2 3 3 5 6 7 6 6 6 6 7 8 8 6 5 4 4 4 3 3 3 4 4 3 2 2 1 1 1
0 0 0 0 0 0 0 0 0 0 0 1 2 2 2 2 3 3 5 7 8 9 8 7 7 8 9 9 7 6 5 5 5 5 4 4 4 4 4 3 2 2 2 2
0 0 0 0 0 0 0 0 0 0 1 1 2 3 3 3 3 3 4 6 9 10 10 9 9 10 10 10 9 8 8 7 7 6 5 4 5 5 4 4 3 2 2 2
0 0 0 0 0 0 0 0 0 1 1 2 3 3 3 3 3 3 4 6 9 10 10 10 11 11 12 11 12 11 10 8 7 6 5 5 5 6 6 4 3 3 2 2
0 0 0 0 0 0 0 0 0 1 1 3 3 3 2 2 3 3 4 6 8 10 10 10 11 12 13 14 16 15 11 8 7 6 6 6 7 7 6 5 4 3 3 3
0 0 0 0 0 0 0 0 0 1 1 3 4 3 3 3 3 3 4 5 7 8 8 8 10 12 13 14 16 14 10 8 7 7 7 7 8 8 6 6 5 4 4 3
0 0 0 0 0 0 0 0 0 1 2 4 4 4 4 5 5 4 4 5 5 6 6 6 7 8 8 9 10 8 7 6 6 7 8 9 8 7 6 6 6 5 4 4
0 0 0 0 0 0 0 0 0 1 3 4 5 5 6 7 7 7 6 5 5 5 5 4 4 4 4 4 4 4 3 5 7 9 9 9 7 6 6 6 6 6 5 5
1 1 0 0 0 0 1 1 2 3 4 4 5 5 6 7 8 8 8 6 5 5 5 4 4 4 3 3 2 3 3 5 8 10 8 6 5 4 5 5 5 5 5 5
1 1 1 0 1 1 1 2 4 5 5 5 5 5 5 6 7 7 6 6 5 5 4 4 4 3 3 3 3 4 5 6 7 7 5 4 3 3 2 2 2 3 3 4
1 1 1 1 1 1 2 3 5 6 5 4 4 4 4 4 5 5 5 5 4 4 3 3 3 3 2 3 3 4 5 5 5 4 3 3 2 2 2 1 1 1 1 2
1 1 1 1 1 1 2 3 4 4 4 4 4 4 4 4 4 5 5 4 4 3 3 3 3 3 3 3 3 4 4 3 3 2 2 2 2 2 2 2 2 1 1 1
1 1 1 1 1 1 2 2 3 3 3 4 5 5 5 4 4 4 4 4 3 3 2 3 4 4 4 3 3 3 3 2 2 2 2 2 2 3 3 3 2 2 1 1
1 1 1 1 1 2 2 2 3 3 3 3 5 5 5 4 4 4 4 4 4 3 3 2 3 4 4 3 3 3 3 2 2 1 1 2 2 3 3 3 3 3 2 2
1 1 1 2 2 2 2 2 2 2 2 2 4 5 5 5 4 3 4 4 4 4 3 2 2 3 4 4 4 4 4 4 3 2 2 2 3 3 4 4 4 3 3 2
1 1 1 2 2 2 2 1 1 2 1 2 3 4 5 4 4 4 4 4 5 4 3 2 2 2 3 3 4 4 4 5 5 4 4 4 4 5 5 5 4 4 3 3
0 0 1 1 1 1 1 1 1 1 1 2 3 4 4 4 3 3 4 5 5 5 3 2 1 1 1 2 2 3 3 4 5 5 5 5 6 6 5 5 4 4 3 3
0 0 0 0 1 1 1 1 1 1 1 2 3 3 3 2 2 2 3 5 5 5 3 2 1 0 0 0 1 1 2 3 4 4 4 4 5 5 4 4 3 3 3 3
0 0 0 0 0 1 0 1 1 1 1 2 2 2 2 2 1 1 3 5 6 5 3 2 1 0 0 0 0 0 1 1 2 2 2 2 3 3 2 2 2 2 3 3
0 0 0 0 0 0 0 1 1 1 1 2 2 2 1 1 1 2 4 6 6 4 2 1 0 0 0 0 0 0 0 1 1 1 1 1 1 1 1 1 2 2 2 2
0 0 0 0 0 0 0 0 1 1 1 1 2 2 1 1 2 3 5 6 4 3 1 1 0 0 0 0 0 1 1 0 0 0 0 0 1 1 1 1 1 1 2 2
0 0 0 0 0 0 0 0 0 0 0 1 1 1 1 2 4 6 6 4 3 1 1 1 0 0 0 0 0 0 1 1 0 0 0 0 0 1 1 1 1 1 1 1
0 0 0 0 0 0 0 0 0 0 0 0 0 1 2 4 6 7 5 3 1 1 1 0 0 0 0 0 0 0 0 0 0 0 0 0 0 0 1 1 1 1 1 1
0 0 0 0 0 0 0 0 0 0 0 0 0 0 2 4 6 5 4 2 0 0 0 0 0 0 0 0 0 0 0 0 0 0 0 0 0 0 0 0 0 0 0 1
0 0 0 0 0 0 0 0 0 0 0 0 0 0 1 2 3 3 2 1 0 0 0 0 0 0 0 0 0 0 0 0 0 0 0 0 0 0 0 0 0 0 0 0
0 0 0 0 0 0 0 0 0 0 0 0 0 0 0 1 2 2 1 1 0 0 0 0 0 0 0 0 0 0 0 0 0 0 0 0 0 0 0 0 0 0 0 0

GEFSNGP_con_maxscp_246.txt.gz
SCP
0 0 0 0 0 0 0 0 0 0 0 1 1 1 2 2 2 2 3 5 8 11 11 10 8 6 6 6 6 5 4 6 8 7 6 6 5 5 4 4 6 8 9 9
0 0 0 0 0 0 0 0 0 0 0 1 1 2 2 2 2 3 3 4 7 10 11 10 8 7 7 8 7 5 4 5 6 6 6 6 6 5 4 4 4 6 7 8
0 0 0 0 0 0 0 0 0 0 0 1 2 2 2 2 2 3 3 4 6 8 10 9 8 8 10 10 8 6 5 5 5 5 6 6 5 5 5 4 4 4 5 7
0 0 0 0 0 0 0 0 0 0 1 1 2 2 2 2 2 3 3 3 5 7 8 8 8 9 10 10 8 7 6 6 6 7 7 6 5 5 5 4 4 4 5 6
0 0 0 0 0 0 0 0 0 1 1 1 2 2 2 3 3 3 3 3 5 6 7 7 8 9 9 9 8 7 7 8 8 8 8 7 6 6 6 5 5 5 5 5
0 0 0 0 0 0 0 0 1 1 1 2 2 2 3 4 5 4 4 4 5 6 7 7 7 8 7 7 7 7 8 9 9 9 9 8 7 7 7 7 6 6 6 6
0 0 0 1 1 1 1 1 1 2 2 2 3 3 3 5 6 6 5 4 5 6 8 8 7 7 6 6 6 7 9 10 11 12 11 10 9 9 9 8 7 7 7 7
0 0 1 1 1 1 1 2 2 2 2 2 3 3 4 5 6 6 5 4 5 7 8 8 7 7 7 7 9 10 12 13 14 14 12 10 10 10 10 10 9 8 8 8
1 1 1 2 2 2 2 2 2 3 3 3 3 3 4 5 6 6 5 5 6 8 9 9 8 8 9 11 14 15 16 16 17 15 13 11 11 11 11 10 9 8 8 8
2 2 2 3 3 3 3 3 3 3 3 3 3 4 4 5 6 6 6 6 7 8 9 9 9 9 11 14 16 17 17 17 16 15 14 13 12 12 11 10 9 8 8 8
2 2 3 3 4 4 4 4 4 4 4 4 5 5 6 6 6 7 8 8 8 8 8 9 9 11 12 13 13 13 14 14 13 13 13 13 12 12 10 8 7 7 8 8
3 3 4 4 5 5 5 5 5 4 4 4 6 6 6 6 7 9 11 12 12 11 10 9 9 10 11 10 9 9 10 10 9 10 10 11 10 9 6 5 4 5 6 6
4 5 5 5 6 6 6 6 5 5 5 5 6 6 6 6 7 10 14 16 15 14 12 10 9 10 10 8 7 6 7 7 7 8 9 9 7 5 3 2 2 2 2 2
4 5 6 7 6 6 6 5 5 5 6 6 6 5 5 6 7 11 14 17 18 17 14 11 9 8 8 7 6 5 5 5 6 7 7 7 5 4 3 3 3 3 2 1
4 6 8 8 6 5 5 5 4 5 6 6 5 5 5 6 8 11 14 16 18 17 14 11 8 6 6 5 4 4 4 5 5 5 5 4 4 4 4 4 5 5 4 3
4 6 7 7 5 4 4 4 4 4 5 5 5 5 5 7 9 11 13 15 17 16 13 9 6 5 4 3 3 3 4 4 4 4 4 4 4 4 5 5 6 5 5 4
3 4 5 5 4 3 3 3 3 4 5 6 6 6 6 7 8 9 10 12 13 12 10 7 5 4 3 2 2 3 3 3 3 3 3 3 4 4 5 5 5 5 5 5
2 2 2 2 2 2 3 3 3 3 4 5 6 6 6 6 6 6 7 8 8 7 6 5 5 4 3 3 2 3 2 2 2 2 2 2 2 3 3 4 4 4 4 4
2 2 2 2 2 2 2 3 3 3 3 4 4 4 4 4 4 5 5 6 5 4 4 4 4 4 3 2 2 2 2 2 1 2 1 1 1 2 2 2 3 3 3 3
2 2 2 2 2 2 2 2 2 2 3 3 3 3 3 3 3 3 4 5 4 4 3 3 3 3 3 2 2 2 2 2 2 2 1 1 1 1 1 2 2 3 3 3
3 3 3 3 2 2 2 2 2 2 2 2 2 2 2 1 1 2 3 4 4 4 3 2 3 3 3 2 2 2 2 2 2 2 1 1 1 1 1 1 2 2 2 3
4 4 3 3 3 3 2 2 2 1 2 2 2 1 1 1 1 2 2 3 3 3 3 2 2 2 2 2 2 2 2 2 2 1 1 1 1 1 0 1 1 1 2 2
5 5 4 3 3 3 2 2 1 1 1 2 2 1 1 1 1 2 2 2 2 2 2 2 2 1 1 2 2 2 2 2 2 1 1 1 1 0 0 0 1 1 1 1
6 5 4 4 3 3 2 1 1 1 1 1 1 1 1 1 1 1 2 2 1 1 1 1 1 1 1 2 3 3 2 2 1 1 1 1 1 0 0 0 1 1 1 1
6 5 4 3 3 2 2 1 1 1 1 1 1 1 1 1 1 1 1 1 1 1 1 1 0 0 1 2 2 2 2 1 1 1 1 0 0 0 0 0 0 0 1 1
5 4 4 3 2 2 1 1 1 1 1 1 1 1 1 1 1 1 1 1 1 1 1 1 1 1 1 1 1 1 1 1 0 0 0 0 0 0 0 0 0 0 1 1
4 4 3 2 2 1 1 0 0 0 0 1 1 1 1 1 1 1 1 1 1 2 2 2 1 1 1 1 1 1 1 1 0 0 0 0 0 0 0 0 0 1 1 1

GEFSNGP_con_maxscp_252.txt.gz
SCP
0 0 0 0 0 0 0 0 0 1 1 2 3 4 5 7 7 6 7 8 10 13 18 20 19 18 15 12 11 11 12 12 10 9 8 7 7 8 10 11 11 11 11 10
0 0 0 0 0 0 0 0 0 1 2 2 3 4 6 7 7 6 7 8 10 13 17 21 21 19 16 13 12 12 12 11 9 8 8 7 7 8 10 11 12 11 11 11
0 0 0 0 0 0 0 0 1 2 2 3 3 4 6 7 6 5 6 8 10 12 15 20 23 20 15 12 11 11 11 10 9 9 9 8 8 9 11 12 13 12 12 11
0 0 0 0 0 0 0 0 1 2 3 3 4 4 5 6 6 5 5 6 8 10 13 18 20 17 13 10 10 10 10 9 9 9 9 10 10 11 12 14 14 13 12 12
0 0 0 0 1 1 1 1 2 3 3 4 5 5 5 5 5 5 5 6 8 10 12 15 15 13 11 10 10 10 10 10 10 10 9 10 11 13 14 15 15 14 12 12
1 1 0 1 1 1 1 1 2 3 4 5 5 5 5 5 6 6 6 7 8 10 11 12 11 10 10 11 11 11 10 10 10 10 10 11 13 15 16 16 15 14 12 11
1 1 1 1 1 1 2 2 3 3 4 5 5 5 6 6 8 8 8 8 8 9 10 11 11 11 11 11 10 10 9 9 10 11 11 12 14 17 18 17 15 13 12 11
1 1 1 2 2 3 3 3 3 3 4 5 5 5 6 8 10 11 10 9 9 9 11 12 13 13 12 11 11 10 9 9 10 11 11 12 14 17 19 17 15 12 11 11
5 5 4 4 4 5 4 3 3 3 4 4 4 5 6 9 12 12 11 11 11 11 13 16 17 15 13 12 12 12 12 11 11 11 11 12 13 16 17 17 14 13 13 13
10 9 7 6 5 5 4 3 3 3 4 4 5 6 7 10 12 13 13 13 13 13 15 19 20 18 15 14 14 14 13 13 12 11 11 12 13 14 16 16 14 13 13 14
12 11 9 6 5 4 3 3 3 4 4 5 6 7 8 11 14 16 15 16 15 14 15 19 20 18 16 15 15 15 14 12 11 10 11 12 13 13 13 13 13 12 12 12
11 12 12 10 8 5 3 3 3 4 5 6 8 9 10 13 15 17 18 18 17 16 17 19 19 17 16 15 15 15 13 11 10 11 12 13 13 12 11 10 8 8 9 9
10 11 14 15 14 8 4 3 3 4 5 7 9 11 12 13 14 16 18 19 19 18 19 19 19 17 15 15 16 16 16 15 14 16 16 16 15 13 12 9 7 6 6 6
6 7 9 14 15 11 6 5 5 5 6 7 8 10 11 12 13 15 17 17 18 19 19 19 18 16 15 15 16 18 19 19 20 21 20 19 17 15 13 12 10 7 4 3
3 4 5 8 11 10 8 6 6 7 7 8 9 9 11 11 13 15 16 16 17 18 19 18 17 16 15 14 15 17 18 20 21 21 20 18 16 14 13 12 11 8 5 3
3 3 4 5 6 7 6 6 6 7 8 9 10 10 11 12 13 15 16 17 19 20 20 18 17 15 14 13 12 12 12 13 15 15 15 14 14 12 11 10 9 8 6 5
3 3 3 3 4 4 4 5 5 6 7 8 9 10 10 10 12 15 16 17 19 20 19 17 16 15 13 12 11 9 8 7 8 9 10 10 9 9 8 7 7 7 7 6
3 3 3 3 3 3 4 4 5 6 6 7 8 8 8 8 9 12 14 16 18 19 18 17 15 14 13 11 10 9 7 5 4 5 6 6 5 5 4 4 4 5 5 5
2 3 3 3 3 3 3 5 6 6 6 6 6 7 7 7 8 9 12 14 16 17 17 15 13 12 11 9 8 7 6 5 4 4 4 4 3 3 2 2 2 3 3 3
2 3 4 5 4 4 4 5 6 6 5 5 6 8 8 8 8 8 9 10 11 12 12 10 10 10 9 7 6 5 5 4 4 4 4 4 4 3 3 2 2 2 2 2
3 3 4 6 6 5 5 5 5 5 6 7 9 9 9 8 7 6 6 6 6 6 6 6 7 8 7 5 4 3 4 4 4 4 4 3 4 4 4 3 2 2 2 1
4 4 4 5 6 6 6 6 6 7 8 9 10 9 8 7 6 5 5 4 3 3 3 4 4 4 4 3 3 3 4 5 5 4 4 3 3 3 4 3 3 2 2 1
5 6 6 6 7 8 7 6 6 7 8 8 8 7 6 5 5 5 4 3 2 1 2 2 1 2 2 3 5 5 5 5 5 4 4 3 3 3 3 3 2 2 2 1
10 10 11 10 10 10 8 7 5 5 4 4 4 3 4 4 5 5 4 3 2 1 1 1 0 1 2 4 5 6 5 5 4 4 4 3 2 2 2 2 2 2 2 1
15 16 16 15 13 10 8 6 3 2 2 1 1 1 2 3 4 4 4 4 2 1 1 1 1 1 1 2 3 4 4 3 4 4 4 3 2 2 2 2 2 2 1 1
18 18 17 15 12 8 6 4 2 1 1 1 1 1 1 2 2 3 4 3 2 2 2 2 1 1 1 1 1 2 2 2 3 4 4 3 2 2 2 2 1 1 1 1
18 18 17 14 10 6 4 2 1 1 1 1 1 1 1 2 2 2 2 3 2 2 2 2 2 1 1 1 1 1 2 2 3 4 4 3 3 3 2 2 1 1 1 1

GEFSNGP_con_maxscp_258.txt.gz
SCP
0 0 0 0 0 0 0 0 0 0 1 2 3 4 5 5 5 6 8 12 14 13 11 9 9 10 10 9 8 8 8 7 7 6 6 6 5 4 3 3 3 3 3 3
0 0 0 0 0 0 1 0 0 1 1 2 4 4 5 6 6 6 7 11 14 14 12 10 9 9 10 9 8 8 7 6 6 5 6 6 5 4 4 4 4 4 4 4
0 0 0 0 0 1 1 1 1 1 2 5 6 6 6 6 6 6 7 9 12 13 13 11 9 9 9 8 8 8 6 5 5 5 5 6 5 4 4 5 6 6 5 5
0 0 0 0 0 0 1 1 2 2 5 7 8 7 6 5 6 6 7 8 10 12 12 11 10 9 9 9 9 8 6 6 6 6 6 6 5 5 4 4 4 5 5 4
0 0 0 0 0 1 1 2 3 4 6 7 8 7 6 5 7 9 11 12 12 12 10 8 8 9 10 10 10 8 7 6 6 6 6 6 5 5 5 4 4 4 4 4
0 0 0 1 1 1 2 3 3 4 5 7 9 8 6 5 8 13 15 15 14 12 9 8 8 10 11 11 10 8 7 6 6 6 6 5 5 5 5 5 4 4 4 4
0 0 1 1 1 1 2 3 3 3 5 7 8 7 6 6 8 12 13 14 14 12 9 8 9 10 11 10 8 7 6 6 6 6 5 5 5 5 5 5 5 5 5 4
0 0 1 1 1 1 2 2 2 3 4 6 8 8 8 8 8 9 11 13 14 12 10 9 9 10 9 8 7 6 6 6 5 5 5 5 5 5 5 5 5 5 5 5
1 1 1 1 1 2 2 2 3 4 5 7 9 10 9 9 10 11 12 13 14 12 10 9 9 9 8 7 7 8 8 7 6 5 4 4 5 5 6 5 5 5 6 6
1 1 1 1 2 2 3 4 5 6 8 10 12 12 10 10 11 13 14 15 15 14 12 10 9 9 8 8 9 9 9 8 7 6 5 5 5 5 5 6 5 6 7 7
3 2 2 3 3 4 5 7 8 10 11 13 14 14 11 10 11 12 14 16 17 17 15 13 11 9 8 8 9 10 10 10 10 9 8 7 6 5 5 5 5 5 7 7
5 5 5 6 7 8 9 10 10 11 11 12 15 15 14 12 11 11 12 14 16 17 17 15 13 10 9 9 10 11 12 13 14 13 11 10 8 7 5 4 3 3 5 6
9 9 10 11 11 11 11 10 10 9 8 9 11 14 14 13 11 10 10 10 12 13 13 13 13 12 10 10 12 15 16 18 18 17 15 13 10 8 6 3 2 2 2 3
14 14 14 14 13 12 10 9 8 7 6 6 8 10 11 10 9 9 8 8 9 10 10 12 13 13 12 13 16 20 23 23 21 19 17 14 11 8 6 4 3 2 1 1
17 16 14 13 12 10 8 7 6 5 5 5 6 7 7 7 8 9 7 6 8 9 10 12 14 15 15 18 23 28 29 26 22 18 15 12 10 8 6 5 4 3 2 1
13 12 11 10 9 7 6 5 5 4 4 4 4 4 5 6 9 12 10 7 8 9 10 13 15 16 18 23 30 33 29 23 18 15 13 10 8 7 6 6 5 5 4 2
6 6 6 6 5 5 4 4 3 3 3 3 3 3 3 4 9 14 12 9 9 9 11 14 16 16 18 23 28 29 24 17 14 12 10 8 7 7 7 7 7 7 5 3
3 3 3 3 3 3 3 3 3 3 3 3 4 3 2 3 8 12 12 11 9 9 10 13 15 15 16 18 20 20 17 14 11 9 7 6 7 8 9 10 9 9 6 4
2 2 2 2 2 2 2 2 2 3 4 5 4 3 2 3 7 10 11 10 9 8 8 11 13 13 13 14 15 15 14 12 10 8 7 7 8 11 12 12 10 9 6 4
2 2 2 2 2 2 3 4 5 5 5 5 3 2 3 4 7 9 10 8 7 6 6 7 9 11 11 11 11 11 11 10 8 8 8 9 10 11 11 10 8 6 5 4
3 3 3 3 4 4 5 7 8 7 5 3 2 3 5 6 8 9 8 6 4 3 3 4 5 7 8 8 8 10 10 9 7 7 7 7 7 7 6 6 5 4 3 3
3 3 3 4 6 6 7 8 7 6 4 3 3 5 7 8 8 8 6 4 2 1 1 1 2 3 4 5 8 10 10 8 6 5 4 4 3 3 3 3 4 4 3 3
3 3 3 4 5 5 6 5 5 4 3 4 4 6 7 7 6 4 3 1 1 1 0 0 0 1 1 3 6 8 7 5 4 3 2 2 1 1 1 3 4 4 4 3
2 2 2 2 3 3 4 4 4 3 3 3 4 5 5 4 2 1 1 0 0 0 0 0 0 0 0 1 2 3 4 3 2 2 1 1 1 1 1 3 4 4 4 3
2 1 1 1 2 4 5 6 4 3 2 2 2 2 2 1 1 1 0 0 0 0 0 0 0 0 0 0 1 1 2 2 1 1 1 1 1 1 1 3 4 4 4 3
1 1 1 2 4 5 6 6 4 3 2 1 1 1 0 0 0 0 0 0 0 0 0 0 0 0 0 0 0 1 1 1 1 1 1 1 0 0 1 3 3 3 3 3
1 1 2 4 5 6 6 5 3 2 1 1 1 0 0 0 0 0 0 0 0 0 0 0 0 0 0 0 0 0 0 0 0 0 0 0 0 0 1 2 3 3 3 2

GEFSNGP_con_maxscp_264.txt.gz
SCP
0 0 0 0 0 0 0 0 0 0 0 1 2 4 5 7 7 8 7 6 4 3 3 3 5 7 8 7 5 4 3 3 3 3 3 3 3 3 3 3 3 3 3 3
0 0 0 0 0 0 0 0 0 0 0 1 3 4 6 7 7 7 6 5 4 3 3 3 6 8 8 8 6 4 3 3 3 3 3 3 3 4 4 4 3 3 4 4
0 0 0 0 0 0 0 0 0 0 0 1 3 5 6 7 7 5 4 3 3 2 3 4 6 8 8 8 7 5 4 3 4 4 3 3 4 5 5 5 5 5 4 4
0 0 0 0 0 0 0 0 0 0 1 2 4 5 6 6 5 3 2 2 2 2 3 4 6 7 8 8 7 6 4 4 4 5 4 4 4 6 7 7 7 7 6 5
0 0 0 0 0 0 0 1 1 1 2 4 5 6 5 4 3 2 2 2 2 2 3 4 6 7 7 8 8 6 4 4 5 5 4 3 3 5 7 8 8 9 8 6
0 0 0 0 0 0 0 1 1 2 3 4 5 5 4 2 1 2 2 2 2 2 3 4 6 7 7 8 8 6 4 4 4 4 4 3 2 3 5 7 8 8 7 5
0 0 0 0 0 0 0 1 2 3 4 4 4 3 2 2 2 2 2 2 2 2 3 4 6 8 8 8 7 6 5 4 4 5 4 3 3 3 4 5 6 6 5 4
0 0 0 0 0 0 0 1 2 3 3 3 2 2 3 3 3 3 3 3 2 2 3 5 7 9 9 8 8 7 6 4 4 4 5 5 4 4 4 4 4 4 4 4
0 0 0 0 0 0 0 1 2 3 3 2 2 3 3 4 4 4 3 3 2 3 4 6 8 9 9 9 9 8 7 5 4 4 4 5 5 5 5 4 4 4 4 4
1 1 1 1 1 1 1 1 2 2 2 1 2 3 4 4 4 3 3 3 4 4 6 8 9 10 10 10 10 9 7 6 5 4 4 4 4 5 5 4 4 4 4 4
1 1 1 1 1 1 1 1 2 2 2 2 2 3 4 4 4 3 3 4 5 7 8 9 10 10 9 9 9 9 7 7 6 5 5 4 4 4 4 5 5 5 5 5
1 1 1 1 1 1 1 1 2 2 3 3 3 4 5 5 4 4 4 4 6 7 8 8 8 7 7 8 8 8 7 6 6 5 4 4 4 4 5 5 4 4 4 5
1 1 2 1 1 0 0 1 2 3 4 5 5 5 5 5 5 4 4 5 5 5 5 5 5 5 5 6 7 7 6 5 4 4 3 4 5 6 7 6 5 4 4 4
2 2 2 1 1 0 0 1 2 3 5 6 6 6 5 5 5 5 5 5 5 4 4 4 4 4 5 5 5 5 4 4 4 3 3 3 5 7 9 9 8 7 5 4
3 2 2 1 1 1 1 2 3 4 5 6 6 5 5 5 4 5 6 6 5 5 5 5 4 4 4 4 4 4 3 3 4 4 4 3 5 8 10 12 11 10 8 7
2 2 2 2 2 2 2 3 4 4 5 5 5 5 4 4 4 4 5 5 4 4 5 5 5 4 3 3 3 3 3 4 5 6 5 4 5 8 10 12 13 12 11 9
3 2 3 3 3 3 3 3 4 4 4 4 4 4 4 3 3 3 3 2 2 3 3 4 4 4 3 3 3 3 4 4 5 7 6 5 6 8 11 12 13 13 11 9
4 4 4 4 4 4 3 4 4 4 4 4 4 3 3 2 2 1 1 1 1 2 2 2 3 3 3 3 3 4 5 5 6 7 7 6 6 9 12 13 13 12 8 5
5 5 4 4 4 3 3 3 3 3 3 3 3 2 2 1 1 1 1 1 1 1 2 2 2 3 3 3 3 5 5 6 7 8 9 7 7 9 10 11 10 8 5 3
3 3 3 2 2 2 2 2 2 2 2 2 2 2 2 1 1 1 1 1 1 1 2 2 3 3 3 2 3 5 6 6 7 9 10 9 7 6 6 5 4 3 2 1
1 1 1 1 1 1 1 1 1 2 3 3 3 2 1 1 0 0 1 1 1 1 2 3 4 3 2 2 3 5 7 7 8 9 10 9 6 4 2 1 1 1 1 1
1 2 2 1 1 1 1 2 3 3 4 3 2 1 1 0 0 0 0 1 1 2 3 3 3 2 1 1 3 6 7 8 9 9 9 8 5 3 2 1 0 0 1 1
2 2 2 2 1 1 2 3 3 3 3 2 1 0 0 0 1 1 1 1 1 2 2 2 1 0 0 1 2 5 7 7 8 8 7 6 4 3 2 1 1 1 1 2
1 2 2 2 1 1 1 1 2 2 1 1 0 0 1 1 2 2 2 1 1 1 1 1 0 0 0 0 1 3 4 5 5 5 5 4 3 4 4 2 1 1 2 2
1 1 2 2 2 1 0 0 0 0 0 0 0 0 1 2 2 2 1 1 0 0 0 0 0 0 0 0 0 1 2 2 3 2 2 2 2 3 3 3 2 1 2 2
0 0 1 2 1 1 0 0 0 0 0 0 0 0 0 1 1 1 0 0 0 0 0 0 0 0 0 0 0 0 0 1 1 1 1 1 1 1 2 2 1 1 1 1
0 0 0 1 1 1 0 0 0 0 0 0 0 0 0 0 0 0 0 0 0 0 0 0 0 0 0 0 0 0 0 0 0 1 0 0 0 1 1 1 1 1 1 0

GEFSNGP_con_maxscp_270.txt.gz
SCP
0 0 0 0 0 0 0 0 0 0 1 1 1 2 3 2 3 3 4 4 4 5 6 6 6 6 7 6 6 9 12 13 12 11 8 5 4 3 3 3 3 3 2 2
0 0 0 0 0 0 0 0 0 0 1 1 2 3 3 2 3 4 4 3 4 6 7 7 6 7 8 7 7 9 12 13 11 10 7 5 4 3 3 3 3 3 3 3
0 0 0 0 0 0 0 1 1 1 1 2 3 3 3 2 3 4 4 3 3 5 6 7 7 7 7 7 7 8 11 12 10 8 6 4 4 4 4 4 4 4 4 4
0 0 0 0 0 1 1 1 1 1 1 2 3 3 2 3 4 4 3 2 3 3 5 6 7 7 5 5 5 7 9 10 8 6 5 5 5 6 6 5 5 5 5 5
0 0 0 0 0 1 1 1 2 2 2 2 2 2 2 3 4 4 3 2 2 3 5 7 8 6 4 4 5 6 7 7 7 6 6 6 6 7 8 7 7 7 6 6
0 0 0 1 0 0 1 1 2 2 2 2 2 2 3 4 4 3 2 2 2 4 6 9 8 6 5 5 5 5 6 6 7 7 7 6 6 6 8 9 8 8 7 7
0 0 1 0 0 1 1 1 2 2 2 2 2 3 3 4 4 3 2 2 3 5 8 10 8 6 5 6 6 6 6 6 7 8 8 8 7 7 7 8 8 8 7 7
1 1 1 1 1 1 2 2 2 3 3 2 3 3 4 4 3 2 2 3 4 7 9 9 7 6 7 7 7 6 6 6 7 9 9 10 10 10 9 8 8 7 7 6
1 1 1 1 1 1 2 2 3 3 3 3 3 3 4 4 3 2 3 4 6 7 8 8 6 6 7 7 7 7 6 6 7 9 10 11 13 13 12 11 10 8 6 6
2 2 2 2 1 1 1 2 2 2 3 3 3 4 4 3 3 3 4 5 6 7 8 7 6 6 7 7 7 7 7 8 9 10 10 12 14 15 14 13 12 11 9 9
2 2 2 2 2 1 1 2 2 2 3 3 4 5 5 5 5 5 5 6 7 7 7 8 8 8 7 8 8 9 10 11 11 11 11 13 16 16 13 11 11 11 11 11
2 2 2 2 2 2 2 2 3 3 3 4 4 5 6 7 8 8 8 8 8 7 8 9 10 10 9 9 9 11 12 12 11 10 11 13 17 17 12 8 7 7 7 7
2 2 2 2 2 2 3 3 3 4 4 4 4 4 5 7 8 9 10 11 11 10 10 10 11 10 9 10 11 12 13 11 10 9 9 11 14 16 14 9 6 3 2 2
3 3 2 2 2 2 3 3 3 3 4 4 4 4 4 5 7 8 9 11 13 13 12 11 10 10 9 10 11 12 11 10 10 10 11 11 12 14 14 12 8 4 2 1
3 3 2 2 2 2 2 2 2 2 3 3 4 4 4 5 6 6 8 10 12 14 13 12 11 11 10 11 12 12 12 11 13 15 16 14 13 13 12 10 8 5 4 3
3 3 2 2 2 1 1 2 2 2 2 2 3 3 4 5 5 6 7 9 11 13 13 12 12 11 10 12 14 15 16 15 16 18 18 16 13 11 9 7 6 5 5 5
3 3 3 2 2 1 1 1 2 2 2 2 2 2 3 3 4 5 7 8 10 11 12 11 10 10 11 14 16 18 19 17 15 15 14 12 10 8 6 5 6 6 7 6
3 3 2 2 1 1 0 1 2 2 2 2 2 2 2 2 3 4 5 6 8 9 9 8 8 9 13 16 18 18 17 14 12 10 9 7 6 5 5 5 6 7 8 7
3 3 2 1 1 1 0 1 1 3 3 3 2 2 2 2 3 3 3 4 6 7 7 6 6 8 12 13 14 13 11 8 7 7 6 5 5 5 5 5 6 8 9 9
3 3 2 1 1 1 0 1 1 3 3 3 3 2 2 2 3 3 3 4 5 6 5 5 5 7 8 7 6 6 5 4 4 5 5 5 4 5 5 6 6 7 8 9
3 3 2 1 1 1 1 1 2 2 3 2 2 2 2 3 2 3 3 4 4 5 4 4 4 5 4 3 3 3 3 4 4 5 4 4 4 5 6 6 6 6 7 7
3 2 2 1 1 1 1 2 2 3 3 2 2 2 2 2 2 3 4 4 4 3 3 3 3 3 2 2 3 3 4 4 5 5 4 4 5 6 7 8 7 6 6 5
2 2 1 1 1 1 1 2 2 3 3 4 4 2 2 2 2 3 3 3 2 2 2 2 2 1 1 2 3 4 4 5 6 5 4 5 6 8 9 9 9 8 7 6
2 1 1 1 1 1 1 2 2 2 3 4 4 3 3 3 3 3 3 2 1 1 1 2 1 0 1 3 4 4 5 5 6 5 4 4 7 9 10 10 10 9 8 7
1 1 1 1 1 1 1 1 2 2 2 3 3 3 3 3 3 3 2 1 1 0 1 1 0 0 2 3 4 4 4 4 4 3 2 3 5 7 9 9 8 7 7 6
1 1 1 1 1 1 1 1 1 2 2 2 2 2 2 2 2 2 2 1 1 0 0 0 0 0 1 2 3 3 3 2 1 1 1 2 3 4 5 6 5 4 4 3
1 1 1 1 1 1 1 1 1 2 2 2 2 2 2 2 2 2 1 1 1 1 1 0 0 0 1 2 2 2 1 1 1 1 1 1 1 2 3 4 4 3 2 2

GEFSNGP_con_maxscp_276.txt.gz
SCP
0 0 0 0 0 0 0 0 0 1 1 2 3 5 5 5 5 6 7 7 8 8 10 11 11 11 10 11 11 10 8 8 9 11 11 9 8 7 8 9 8 8 9 9
1 0 0 0 0 0 0 0 1 1 2 3 4 4 5 5 6 7 8 9 9 9 10 11 12 12 11 10 11 10 9 9 10 10 10 8 8 8 8 9 8 8 9 9
1 0 0 0 1 1 1 2 2 2 3 4 5 5 5 5 6 7 8 10 10 10 11 13 15 15 13 12 11 11 11 11 10 10 8 7 7 7 8 8 8 9 10 10
1 1 1 1 2 2 2 3 4 3 3 5 6 6 5 5 6 7 9 11 10 10 12 16 19 18 17 15 14 14 13 12 11 10 8 7 6 7 7 8 9 10 11 11
1 1 1 2 3 3 3 3 3 3 4 6 8 7 5 5 7 9 10 9 8 8 11 15 19 19 17 16 16 16 16 14 12 11 9 8 8 8 8 8 9 9 9 9
1 1 1 2 2 3 3 3 4 5 6 8 8 6 5 6 9 11 10 8 7 7 9 12 15 16 15 14 14 15 15 14 13 12 11 10 10 10 10 10 10 10 8 8
1 1 2 2 2 2 3 5 6 6 7 8 7 5 6 7 10 11 9 7 8 9 9 10 12 15 15 13 11 11 12 12 12 12 12 12 13 14 13 13 13 12 10 8
1 2 2 3 3 3 5 6 6 6 6 6 5 5 7 9 11 10 8 8 9 10 10 11 13 16 17 14 10 9 9 10 10 10 10 11 14 15 16 15 15 13 11 10
2 3 3 4 4 4 5 5 5 5 5 4 4 5 9 12 12 9 7 8 10 10 10 12 15 17 18 15 11 9 9 9 9 8 8 10 13 15 15 15 13 12 11 11
4 5 6 6 6 5 4 4 4 5 5 5 5 7 11 13 11 9 7 7 9 10 10 12 16 18 19 16 12 11 10 10 9 9 8 10 11 12 13 13 12 11 11 11
6 8 9 8 6 5 4 3 4 4 5 5 5 7 11 12 10 9 8 7 7 8 10 12 15 19 21 18 14 12 11 11 10 9 9 10 11 10 10 10 10 9 10 10
6 7 8 6 5 4 3 3 3 4 4 4 4 5 9 13 14 12 10 8 6 7 9 12 15 19 22 21 17 13 12 12 11 10 10 11 12 11 9 7 6 6 7 7
4 5 4 3 3 3 3 2 3 3 3 3 3 4 7 12 15 14 12 9 7 8 9 12 16 18 20 21 20 16 13 12 12 11 10 11 13 13 12 9 6 4 4 3
3 3 3 2 2 3 3 2 2 2 2 2 3 4 6 8 10 12 12 11 9 10 11 13 17 19 19 19 19 17 15 12 12 11 11 11 13 14 14 13 11 8 5 2
2 3 3 3 3 4 3 3 2 3 3 3 3 4 5 5 6 8 10 11 12 13 13 14 17 19 19 18 17 16 13 11 11 11 11 11 11 12 13 15 18 17 12 6
3 3 3 4 4 4 4 3 2 3 3 4 3 4 5 4 5 7 10 11 12 13 14 15 16 17 17 16 15 13 10 8 9 12 12 11 10 10 12 19 25 27 20 13
4 4 4 4 5 4 3 2 2 2 3 4 4 4 5 6 7 9 10 10 10 10 11 14 15 16 15 13 12 11 9 7 9 12 12 10 9 9 13 22 28 26 20 15
4 4 4 5 5 4 3 2 2 2 3 4 4 4 5 7 7 7 8 8 8 7 9 11 12 13 12 10 10 12 11 9 10 11 11 10 10 12 16 21 22 16 12 10
5 5 5 5 5 4 3 2 2 2 2 3 3 3 4 5 5 4 5 6 7 7 8 9 9 9 8 7 8 11 12 11 10 9 10 12 15 18 19 16 12 9 7 7
6 5 6 6 5 4 3 2 1 1 2 2 2 3 3 3 3 3 4 5 6 7 8 8 7 7 6 5 6 7 9 9 8 9 11 14 17 18 16 10 7 6 7 8
7 7 6 6 4 3 2 2 1 1 1 2 2 2 3 3 3 4 4 4 5 6 7 6 6 5 4 3 3 4 5 6 6 8 10 11 12 11 9 7 5 5 6 7
8 8 7 6 4 3 2 2 1 1 2 2 2 2 2 2 3 3 3 3 4 5 6 6 5 3 2 1 1 2 3 4 5 5 6 7 6 6 5 5 4 4 6 7
10 10 8 6 5 4 3 2 1 1 2 2 2 2 2 2 2 2 2 2 2 4 6 6 4 2 1 1 1 1 2 3 3 3 3 4 5 5 5 5 6 7 8 8
13 11 8 6 4 3 2 2 1 2 2 3 3 3 3 3 3 3 3 2 2 4 5 4 2 1 1 1 1 1 2 2 2 2 2 4 6 6 7 7 8 10 10 9
12 9 7 5 3 3 2 1 1 2 3 3 3 3 3 3 4 5 5 3 3 3 3 2 1 1 1 1 1 1 1 2 2 2 3 5 6 6 7 8 8 9 8 8
8 6 4 3 2 2 1 1 2 2 2 2 2 2 3 3 4 5 5 4 3 2 2 1 1 1 1 1 1 1 1 2 3 4 4 5 5 5 6 6 6 6 5 5
5 4 3 2 1 1 1 1 2 2 2 2 2 2 2 3 4 4 4 3 2 2 1 1 1 1 1 1 1 1 1 2 3 4 4 4 4 6 6 5 5 5 3 3

GEFSNGP_con_maxscp_282.txt.gz
SCP
0 0 0 1 1 1 0 0 0 1 2 3 3 3 4 5 5 5 6 7 8 7 6 6 7 9 10 10 9 7 6 5 4 4 5 6 7 7 7 6 5 4 3 3
0 0 1 1 1 1 1 1 1 2 2 3 3 3 4 5 5 5 5 7 8 7 5 5 6 8 10 11 10 9 7 6 5 5 5 5 7 8 8 6 5 4 3 3
0 0 1 1 1 1 1 1 1 2 3 3 3 3 4 4 4 4 5 6 7 6 4 3 4 5 8 10 11 10 8 8 8 7 6 6 7 8 8 7 6 5 4 3
0 0 0 0 1 1 1 2 2 3 3 3 3 3 3 4 4 4 4 5 6 5 3 3 3 4 7 9 9 9 9 10 11 11 9 8 8 8 8 7 6 5 5 5
1 1 1 1 1 2 3 3 3 4 4 5 5 4 3 3 4 4 4 5 6 6 5 4 4 6 7 8 8 8 9 10 11 13 13 11 9 8 8 7 6 6 6 6
1 1 1 1 2 3 4 3 3 4 5 5 5 5 3 3 3 4 6 7 8 9 8 7 7 8 9 8 7 7 7 8 9 12 14 14 12 10 9 7 6 6 6 6
0 1 2 2 3 4 4 3 3 3 4 4 4 4 3 4 4 5 7 9 9 9 9 8 9 10 10 9 7 6 7 7 8 10 14 15 13 11 10 8 7 7 6 6
0 1 2 3 4 3 3 4 4 4 5 4 4 4 4 4 5 7 8 9 9 9 8 7 8 10 10 8 7 7 7 8 8 8 10 11 11 10 9 8 7 7 7 7
1 1 2 3 3 3 4 7 8 8 7 6 5 4 4 4 4 6 8 10 9 9 8 7 7 8 8 8 7 8 8 9 9 9 8 8 8 8 7 6 7 7 8 8
1 1 2 3 3 3 5 8 10 9 7 6 5 4 4 3 4 5 7 8 8 8 8 8 8 8 7 7 8 8 8 9 10 10 10 9 9 8 8 7 8 8 9 9
1 1 2 3 3 2 3 5 7 7 6 5 4 3 4 3 3 4 6 6 6 8 9 8 8 8 7 7 8 7 7 7 8 8 9 9 9 9 9 9 9 8 8 9
1 1 1 2 2 1 2 3 4 6 6 6 5 5 4 3 3 4 5 6 6 8 9 9 8 7 7 8 8 8 7 7 6 6 6 7 7 7 7 7 7 6 5 5
1 1 1 1 1 1 2 3 5 7 8 8 6 5 4 3 3 5 5 5 5 7 7 7 7 7 7 7 8 8 7 7 6 6 6 6 5 5 5 5 4 3 2 2
0 0 1 1 1 2 3 4 6 8 8 7 5 4 3 3 3 4 4 4 4 4 5 5 6 6 7 7 7 7 6 6 6 7 7 7 6 6 5 5 4 3 2 1
0 0 0 1 2 4 6 6 7 7 6 5 3 2 2 2 2 3 3 3 3 3 3 4 4 5 6 7 7 7 6 5 6 7 6 6 7 7 6 6 5 5 4 3
0 0 1 1 3 5 7 8 8 7 5 4 3 2 1 1 1 2 2 3 2 2 2 3 3 4 4 6 7 7 6 7 8 8 5 5 6 6 6 6 6 6 5 5
0 0 1 3 5 5 5 8 9 7 5 4 3 2 1 1 1 1 2 2 2 2 2 2 3 4 4 5 6 7 8 9 10 9 5 3 4 5 6 6 7 6 6 6
0 0 2 5 6 4 4 6 7 6 4 3 2 2 2 1 1 1 1 2 1 1 2 2 3 4 4 5 6 8 9 9 10 8 4 2 3 4 5 6 6 6 6 6
0 0 1 3 5 5 6 6 6 5 4 2 2 2 2 1 1 1 1 1 1 1 1 2 3 4 4 5 5 6 6 6 6 5 3 2 2 3 3 4 5 6 7 7
1 1 1 1 3 5 7 6 5 4 3 2 1 1 1 1 1 2 1 1 1 1 1 2 3 3 4 4 4 4 3 3 2 2 2 1 1 1 2 3 4 5 5 6
2 3 3 2 2 3 5 5 4 3 2 1 0 0 0 1 1 1 1 1 1 1 1 2 3 3 4 4 4 3 3 2 2 2 1 1 1 1 1 1 2 3 3 4
2 2 2 1 1 1 2 4 3 3 2 1 0 0 0 0 0 1 1 1 1 1 2 2 3 3 4 4 3 3 3 3 2 2 2 2 1 1 1 1 1 1 2 2
1 1 1 1 1 1 3 3 3 2 1 0 0 0 0 0 0 0 1 1 1 1 2 2 3 3 3 3 3 2 2 2 3 3 2 2 2 1 1 0 0 1 1 1
0 0 1 2 3 3 4 3 2 1 1 0 0 0 0 0 0 1 1 1 1 1 2 2 2 2 2 2 2 1 1 1 2 2 3 2 2 1 1 1 1 1 1 1
0 1 3 4 5 5 4 3 2 1 1 0 0 0 1 1 1 1 1 1 1 1 1 1 1 1 1 1 1 1 1 1 1 1 2 2 2 1 1 1 1 1 0 0
2 3 5 7 7 6 4 2 1 1 0 0 0 1 1 1 1 1 1 1 1 1 1 1 1 0 0 0 0 0 0 0 0 1 1 2 2 1 1 1 1 0 0 0
4 5 7 8 7 5 3 2 1 1 0 0 0 1 1 1 1 1 1 1 1 1 1 1 0 0 0 0 0 0 0 0 0 0 1 2 2 1 1 1 0 0 0 0

GEFSNGP_con_maxscp_288.txt.gz
SCP
0 0 0 1 1 0 0 0 0 0 0 1 1 2 2 2 3 4 4 3 2 2 1 1 2 2 3 4 5 6 6 5 4 3 2 2 2 2 2 2 2 2 2 3
0 0 1 1 1 1 1 1 1 1 1 1 1 1 2 2 3 3 3 2 2 2 2 2 2 2 3 5 7 7 7 5 5 4 2 2 2 2 2 2 2 2 3 3
0 0 1 1 1 1 2 2 2 1 1 1 2 2 2 2 2 2 2 2 2 2 2 2 2 3 4 7 8 8 7 6 5 4 3 2 2 2 3 3 3 3 3 3
0 0 1 1 1 1 1 2 1 1 1 2 2 2 2 2 2 2 2 2 2 2 3 2 3 3 5 8 10 9 8 7 6 5 4 3 3 3 3 3 3 3 3 3
0 0 1 1 1 1 1 1 1 1 1 2 2 2 2 1 1 1 1 2 2 2 3 3 3 4 6 8 10 10 9 8 7 5 4 4 3 3 3 4 4 4 4 4
0 0 1 1 1 1 1 1 1 1 2 2 2 2 2 1 1 1 1 1 2 2 3 4 5 6 6 7 9 10 10 9 8 6 4 4 4 3 4 4 5 5 5 5
0 0 0 1 1 1 1 1 1 1 2 2 2 2 2 2 2 1 1 2 2 3 3 5 7 8 7 6 7 9 9 8 7 6 5 4 4 4 4 4 4 4 4 4
0 0 0 1 1 1 1 1 1 1 2 2 1 2 2 2 2 2 3 3 3 3 4 6 8 9 8 6 6 8 8 7 6 6 6 5 4 4 4 4 3 3 3 3
0 0 0 1 1 1 1 1 1 2 2 2 1 1 2 2 3 4 5 5 5 5 5 6 8 9 8 7 7 7 7 7 6 6 6 5 5 5 4 4 4 3 3 3
1 1 1 1 1 0 0 1 1 3 3 2 2 1 2 3 3 4 6 7 7 7 7 7 7 8 8 7 7 7 7 7 7 6 5 5 5 5 5 4 4 3 3 2
1 1 1 1 1 0 0 1 2 5 4 2 2 2 2 3 3 4 5 7 9 9 9 8 8 8 7 7 6 7 7 7 7 6 6 5 5 4 4 3 3 2 2 2
1 1 1 1 0 0 0 1 3 5 4 2 2 2 3 4 4 3 4 6 8 9 9 9 8 7 6 5 5 6 7 7 7 7 6 5 4 3 2 2 1 1 1 1
0 0 0 0 0 0 0 1 2 4 3 2 2 2 3 3 3 3 4 5 5 6 6 6 6 5 4 4 5 6 6 7 7 7 6 5 4 4 3 2 1 1 0 0
0 0 0 0 0 0 1 2 2 2 2 2 2 2 2 3 4 4 4 4 3 3 4 4 4 5 5 5 5 5 5 6 7 6 5 4 4 3 3 2 2 2 1 1
0 0 0 0 0 0 2 4 4 3 2 2 2 2 3 3 4 4 4 3 3 3 3 4 4 4 4 4 5 5 4 4 4 4 4 3 3 3 2 3 3 3 2 2
0 0 0 0 0 0 2 5 6 4 3 2 2 2 3 3 3 3 4 4 4 4 4 4 3 3 3 3 4 4 4 3 3 2 2 2 2 2 2 2 3 3 3 3
0 0 0 0 0 0 1 4 7 6 4 3 2 2 2 2 2 2 3 3 3 3 3 3 2 2 2 2 3 4 4 3 2 2 2 2 2 3 3 2 2 2 3 3
0 0 0 0 0 0 0 2 6 7 6 4 2 2 2 1 1 1 2 2 2 2 2 1 1 1 1 2 3 4 4 3 2 2 3 3 2 3 2 2 1 1 2 2
0 0 0 0 0 0 0 2 4 6 7 5 3 2 2 1 1 1 1 1 1 1 1 1 1 1 1 2 2 3 3 3 3 3 3 3 3 2 2 1 1 1 1 1
0 0 0 0 0 0 1 3 4 5 6 5 3 3 2 1 1 1 1 1 0 1 0 0 0 1 1 1 2 2 3 3 2 3 3 4 3 2 2 2 2 1 1 1
0 0 0 0 0 0 1 3 5 5 5 4 3 3 2 1 0 0 0 0 0 0 0 0 0 0 0 1 1 2 2 3 3 3 3 3 3 2 2 2 2 2 1 1
0 0 0 0 0 0 1 2 5 6 5 4 3 3 2 1 0 0 0 0 0 0 0 0 0 0 0 0 1 2 2 3 4 4 3 3 2 2 1 1 1 1 1 1
0 0 0 0 0 0 1 2 4 5 5 4 3 2 1 0 0 0 0 0 0 0 0 0 0 0 0 0 1 2 2 3 4 4 4 4 3 2 2 1 1 0 0 0
0 0 0 0 0 1 2 3 4 4 4 3 2 1 0 0 0 0 0 0 0 0 0 0 0 0 0 0 1 1 1 2 3 4 5 5 4 3 3 2 1 1 0 0
0 0 0 0 1 2 3 3 4 3 2 2 1 0 0 0 0 0 0 0 0 0 0 0 0 0 0 0 0 0 0 1 2 4 5 5 5 4 3 2 2 1 1 0
0 0 0 0 1 2 3 3 3 2 2 1 0 0 0 0 0 0 0 0 0 0 0 0 0 0 0 0 0 0 0 0 1 3 4 5 5 5 4 3 2 1 1 1
0 0 0 0 1 2 3 3 2 2 1 1 0 0 0 0 0 0 0 0 0 0 0 0 0 0 0 0 0 0 0 0 1 2 4 5 5 4 4 3 2 2 1 1

GEFSNGP_con_maxscp_294.txt.gz
SCP
0 0 0 0 0 0 0 1 1 1 1 2 2 2 2 3 3 3 3 4 4 5 4 4 3 3 3 3 3 4 4 4 4 4 4 4 5 5 5 4 3 3 3 3
0 0 0 1 1 0 1 1 1 1 2 2 2 2 2 3 3 3 4 4 4 5 4 4 3 3 4 4 4 4 4 4 4 4 4 5 5 5 5 5 4 4 4 4
0 0 1 1 1 0 1 1 1 1 2 2 1 2 2 2 3 3 3 4 4 4 4 4 3 4 4 4 4 4 4 5 4 4 4 5 5 6 6 6 6 6 6 6
0 1 1 1 0 0 1 1 1 2 2 2 2 2 2 2 3 3 3 3 3 4 4 4 4 4 5 5 5 5 5 5 5 5 6 6 7 8 9 9 8 8 7 7
0 1 1 0 0 1 1 1 1 2 2 2 2 2 2 3 3 4 3 3 3 3 4 4 5 5 6 6 6 7 7 7 7 8 8 10 12 13 13 11 9 8 8 8
0 1 1 1 1 1 1 1 1 2 3 3 3 2 2 3 4 4 4 4 4 4 3 4 5 6 7 8 8 8 8 9 9 10 12 15 18 18 15 12 11 10 8 8
0 1 1 1 1 1 1 1 2 2 3 4 3 3 3 3 4 4 4 4 4 4 3 3 4 6 8 8 8 8 9 11 12 14 16 20 23 21 16 13 12 11 10 10
1 1 1 2 2 2 3 2 3 3 4 4 4 3 3 3 3 4 5 5 5 5 4 3 4 6 7 7 7 9 10 13 15 17 19 23 23 19 15 13 13 13 13 12
1 1 2 2 3 3 4 4 4 5 5 5 4 4 4 4 4 5 6 6 6 5 4 4 4 5 6 7 8 9 12 14 17 20 21 20 17 14 13 13 13 13 13 13
2 2 2 2 3 3 4 4 5 5 5 4 4 5 5 6 6 6 7 7 6 5 4 5 5 6 7 8 9 11 13 15 17 18 17 14 12 11 11 12 12 12 11 10
2 2 2 2 2 2 3 3 5 5 4 4 4 5 6 6 7 7 7 7 6 6 6 7 8 8 9 10 11 12 13 14 15 13 12 10 9 9 9 9 9 9 8 7
1 1 1 2 2 2 2 2 4 5 4 4 4 4 5 6 7 7 7 7 7 8 8 9 10 11 11 11 11 12 12 12 13 12 10 9 9 9 8 6 4 4 4 4
1 1 1 1 1 1 1 2 3 4 4 4 4 4 5 6 7 7 6 7 7 8 9 9 11 12 11 11 10 10 10 11 12 12 11 10 9 9 8 6 3 2 2 2
1 1 1 1 1 1 1 2 2 4 4 4 4 4 5 6 6 6 6 6 7 8 9 10 11 11 10 10 10 10 10 10 11 11 11 9 9 9 9 7 6 4 3 2
1 1 1 1 1 1 2 2 2 3 4 4 4 4 4 5 6 6 6 6 7 8 9 10 11 10 9 9 10 10 10 9 10 12 12 11 10 10 10 11 10 9 8 6
1 1 1 1 1 1 1 2 2 3 3 3 4 3 3 4 5 6 6 6 6 8 9 10 10 9 9 9 9 9 9 8 8 11 12 12 13 14 15 15 15 14 12 10
2 1 1 1 1 1 1 1 1 2 2 3 3 3 3 3 5 6 7 7 7 7 8 8 9 9 9 9 8 8 7 6 7 8 10 11 13 14 14 14 13 12 10 9
1 1 1 1 1 1 1 1 1 2 2 3 3 3 2 3 4 5 6 7 7 7 7 7 7 7 8 7 6 6 5 5 6 7 7 8 8 8 8 7 6 6 6 6
1 1 1 1 1 1 1 1 1 2 2 2 2 2 2 2 3 4 5 6 6 6 5 4 4 5 5 5 5 5 5 5 6 6 6 5 4 4 4 3 3 3 4 4
0 0 0 0 1 1 1 1 1 2 2 2 2 3 3 2 2 3 3 4 4 4 3 3 2 3 2 2 3 4 4 4 5 5 5 4 4 4 4 3 3 3 3 4
1 1 1 1 1 1 1 1 1 2 2 2 3 4 4 3 2 2 3 3 3 3 2 2 2 2 1 2 3 3 3 3 4 4 5 4 4 4 4 4 4 4 4 5
1 1 1 1 1 1 1 1 1 1 1 2 3 4 4 4 3 3 3 3 2 2 2 1 1 1 1 1 2 3 3 3 3 3 3 4 4 4 4 4 4 4 5 5
1 1 1 1 1 1 1 1 1 1 2 2 3 3 4 4 3 3 3 2 2 1 1 1 1 0 1 1 2 2 3 3 2 2 2 2 2 2 3 3 3 4 4 4
1 1 1 1 1 0 0 0 0 1 2 3 3 3 3 3 3 3 2 2 1 1 1 1 0 1 1 1 2 2 2 2 2 2 1 1 2 2 2 2 3 3 3 2
1 1 1 0 0 0 0 0 0 1 2 3 3 3 3 3 3 3 2 1 1 1 1 1 1 1 1 2 2 1 1 1 1 1 1 1 1 1 1 2 2 2 1 1
1 1 0 0 0 0 0 0 0 1 2 2 3 3 2 3 3 3 2 1 1 1 1 2 1 1 1 1 1 1 1 1 1 1 1 1 1 1 1 1 1 1 1 1
0 0 0 0 0 0 0 0 0 1 2 3 2 2 3 3 3 2 2 1 1 1 1 1 1 1 1 1 1 1 1 1 1 1 1 1 1 1 1 1 1 1 1 1

GEFSNGP_con_maxscp_300.txt.gz
SCP
0 0 0 0 0 0 0 1 2 4 6 6 5 5 5 5 6 7 7 8 9 10 11 11 12 12 12 11 10 9 9 10 12 12 11 9 7 6 6 6 6 6 6 7
0 0 0 0 0 1 1 1 2 4 5 5 5 4 4 5 5 6 6 6 8 9 10 10 10 11 10 10 10 9 8 9 11 12 11 10 8 6 6 7 7 7 8 8
0 0 0 1 1 1 1 2 2 3 3 3 3 4 4 4 5 5 5 6 7 9 10 9 8 8 9 9 10 10 9 9 10 11 12 11 9 8 8 8 9 9 9 10
0 0 1 1 1 1 1 1 2 2 2 2 3 4 4 4 5 5 6 7 8 10 10 10 9 8 8 9 11 12 13 12 11 11 12 12 11 12 12 11 10 10 10 11
0 0 1 1 1 1 1 1 2 2 3 3 4 4 4 4 4 5 6 8 10 11 11 11 12 12 11 13 15 17 17 16 15 14 14 14 14 15 16 15 13 11 11 11
1 0 1 1 0 0 1 2 3 5 6 6 6 6 6 6 6 6 7 9 11 13 12 12 13 14 15 16 18 18 16 16 17 17 17 16 17 18 19 19 18 16 14 13
1 0 0 0 0 1 2 3 5 7 8 8 8 8 8 7 6 6 7 10 13 14 13 11 10 11 13 14 14 12 11 13 16 18 19 18 18 21 24 25 23 19 17 15
1 1 1 1 2 2 3 5 5 7 8 8 8 9 10 9 7 6 8 11 14 15 13 10 8 8 10 10 9 8 8 10 13 17 18 18 21 26 30 28 23 18 16 15
2 2 3 3 4 4 5 5 6 7 7 7 7 8 10 11 8 7 9 13 15 15 13 10 8 8 10 11 11 10 9 10 12 15 18 20 25 30 30 25 18 14 13 13
3 4 5 6 5 5 5 5 7 7 7 6 6 7 10 12 10 8 10 15 16 15 13 10 8 9 11 13 15 14 12 11 12 15 19 25 28 26 20 14 12 12 13 14
4 5 6 5 5 4 5 6 7 7 7 7 6 7 9 11 10 10 12 15 16 15 12 11 10 10 12 15 16 15 14 13 14 17 22 25 22 16 10 7 7 9 11 12
3 4 4 4 4 5 7 9 11 11 11 10 10 11 12 12 11 11 13 14 14 13 11 11 11 11 13 15 16 16 15 15 17 20 21 17 12 9 7 5 4 4 5 6
3 3 3 3 4 5 8 10 12 13 13 13 13 13 13 13 13 12 12 11 11 11 10 10 10 10 12 14 15 15 15 15 16 17 15 11 8 7 6 5 3 2 2 2
4 3 3 3 4 5 6 8 8 10 11 11 11 11 11 12 12 11 11 10 9 9 9 9 9 9 10 11 12 14 15 14 12 11 11 10 9 8 7 6 5 4 3 2
4 4 4 4 4 4 4 4 4 5 6 6 7 7 9 10 10 10 9 8 8 8 9 9 8 9 9 9 10 12 13 12 10 10 11 10 10 9 9 9 7 6 5 3
3 3 3 4 3 3 3 2 2 2 3 3 4 6 9 10 10 9 8 8 8 8 9 9 9 9 9 9 8 9 11 11 10 11 12 11 11 11 11 11 10 8 6 4
2 2 2 2 2 2 2 2 2 2 2 2 2 5 9 10 9 8 8 8 9 9 9 9 9 9 9 9 8 7 8 9 9 11 13 13 13 13 14 14 12 10 8 5
2 2 2 2 2 2 2 2 2 2 2 2 2 5 9 10 10 8 7 7 7 8 8 7 7 7 8 8 7 6 6 7 8 10 11 12 13 14 14 14 13 11 8 5
2 2 2 2 2 2 2 2 2 2 2 2 3 5 8 10 10 8 6 5 5 6 6 5 5 6 7 7 6 5 5 5 7 7 8 9 10 11 11 11 10 9 7 5
2 2 3 3 3 2 2 2 2 2 2 2 3 5 7 9 9 7 5 4 4 4 4 4 4 5 5 5 4 4 4 4 5 6 6 7 8 9 8 8 7 7 7 6
3 3 3 2 2 2 2 2 2 1 1 2 4 5 6 8 7 5 4 4 4 4 3 4 4 4 3 3 3 3 3 4 4 5 7 8 9 9 9 8 8 8 8 7
2 2 2 2 2 1 1 1 1 1 1 2 4 5 6 6 5 4 3 3 3 3 3 3 3 2 2 2 2 2 2 3 4 5 6 6 7 7 7 7 6 6 6 6
1 1 1 1 1 1 1 1 1 1 1 3 4 5 5 5 4 3 2 3 2 2 3 3 2 1 1 2 2 2 2 3 3 4 4 4 3 3 3 2 2 2 3 3
1 1 1 1 1 1 1 1 1 1 2 2 3 4 4 4 2 2 2 2 2 2 3 2 1 1 1 2 2 1 1 2 2 2 2 2 1 1 1 1 1 1 1 1
1 1 1 1 1 1 2 2 2 2 2 2 3 2 2 2 1 1 2 2 2 2 3 2 1 1 1 1 1 1 1 1 1 1 1 1 1 1 1 1 1 1 1 1
1 1 1 1 1 2 2 2 2 2 2 2 2 2 2 2 1 1 2 2 2 3 3 2 1 1 1 1 1 1 1 1 0 0 0 0 0 1 1 1 1 1 1 1
1 1 1 1 1 2 2 2 2 2 1 1 1 2 2 2 2 2 2 2 3 3 3 1 1 1 1 1 1 1 1 1 0 0 0 0 0 0 1 1 1 1 1 1

GEFSNGP_con_maxscp_306.txt.gz
SCP
0 0 0 0 1 1 1 1 1 1 2 2 3 4 5 6 7 8 8 7 6 4 4 3 4 4 5 5 4 4 4 3 3 3 3 2 2 2 3 3 3 3 3 3
0 0 0 0 1 1 1 1 2 2 2 2 3 4 6 6 7 7 7 6 5 4 4 4 4 5 5 5 5 4 4 3 3 3 3 3 3 3 3 3 4 4 4 4
0 0 0 0 0 1 1 2 2 2 2 2 3 4 6 6 7 7 7 6 4 4 5 5 5 6 7 7 6 5 4 4 3 3 4 4 5 5 5 6 6 6 7 7
0 0 0 0 1 1 2 2 2 2 2 2 3 4 5 5 6 7 6 5 4 4 5 6 7 9 9 9 7 5 4 4 4 5 5 6 6 7 7 8 9 9 10 11
0 0 1 1 1 2 2 2 2 2 2 2 3 3 3 3 4 4 5 5 5 4 4 6 9 11 12 11 8 6 5 4 5 7 8 7 7 7 8 9 10 11 12 14
0 0 1 1 1 2 2 1 1 1 2 2 3 3 2 2 2 2 3 4 5 4 4 5 8 11 12 11 8 6 4 4 6 8 8 7 6 6 7 8 10 11 12 13
0 1 1 1 1 1 1 1 1 1 1 2 2 2 2 2 2 1 2 3 4 5 4 4 5 7 9 8 7 5 4 4 5 6 6 5 4 5 6 7 9 10 12 13
1 1 1 1 1 0 0 0 0 1 1 2 2 2 2 2 2 1 1 2 4 4 4 3 3 4 5 5 5 4 4 4 5 5 5 4 4 4 5 6 8 10 12 13
2 2 1 1 1 1 1 0 0 1 1 2 3 3 3 3 2 1 1 2 3 3 3 3 3 3 3 3 3 3 3 4 5 5 6 6 5 5 5 7 8 11 13 15
4 4 4 3 2 2 2 1 1 1 2 4 4 5 4 3 2 2 2 2 3 3 3 2 3 3 3 3 2 2 3 4 5 5 6 6 7 6 7 7 8 10 13 15
5 5 6 6 5 5 5 5 5 6 6 7 7 6 6 6 5 3 3 3 3 3 3 3 2 3 3 3 3 2 3 4 5 5 6 6 7 7 7 7 7 7 10 12
4 4 6 8 9 10 10 10 11 13 14 12 11 11 12 13 11 9 7 6 5 4 4 4 4 3 3 3 3 3 4 5 5 5 5 6 7 8 8 7 5 4 5 6
3 3 5 7 11 14 14 12 12 14 15 14 14 15 17 19 18 15 13 10 8 7 6 6 5 4 4 3 3 4 5 5 5 4 5 5 6 7 7 7 5 3 2 2
3 3 4 6 8 11 12 11 10 10 10 11 12 14 16 18 18 17 15 14 12 10 8 7 7 6 5 4 4 4 5 4 4 4 4 5 6 7 8 8 7 6 3 2
4 4 4 4 4 5 7 7 6 6 7 8 10 11 13 14 15 15 14 13 12 10 9 8 8 7 6 6 6 6 5 4 3 3 3 3 4 6 7 8 9 9 6 4
5 5 4 3 2 2 2 2 3 3 4 7 10 12 14 16 16 16 15 13 11 9 8 8 7 7 6 6 7 6 4 4 3 3 3 3 3 4 6 7 9 9 8 7
5 4 4 3 2 1 1 1 1 1 2 4 8 12 16 18 19 19 17 14 12 10 9 7 7 5 5 5 6 5 5 4 4 4 3 3 3 3 4 5 6 8 8 8
4 3 3 3 2 1 1 1 1 1 1 2 4 8 11 14 16 17 16 14 13 12 10 8 7 6 5 5 5 5 5 5 4 3 3 3 2 2 3 3 4 5 6 6
3 3 2 2 1 1 1 1 1 1 0 0 1 2 4 6 9 11 11 11 11 10 9 8 7 6 6 5 5 5 5 5 4 3 2 2 2 2 2 3 3 3 4 4
2 2 1 1 1 1 1 1 1 1 0 0 0 0 0 1 3 5 7 7 7 6 6 6 5 5 5 5 5 5 5 5 4 3 3 2 2 2 3 3 3 3 3 3
1 1 1 1 1 1 1 1 1 0 0 0 0 0 0 0 1 2 3 4 4 3 3 3 3 4 4 5 4 4 4 4 4 3 3 3 2 2 3 3 3 2 3 3
1 1 1 1 1 1 1 0 0 0 0 0 0 0 0 0 0 1 1 2 2 2 2 2 2 3 4 4 4 3 3 3 3 2 3 2 1 1 2 2 2 2 3 3
1 1 1 1 1 1 0 0 0 0 0 0 0 0 0 0 0 1 1 1 1 1 1 2 2 2 2 3 3 2 2 2 1 1 1 1 0 0 1 1 2 2 2 2
1 1 1 1 0 0 0 0 0 0 0 0 0 0 0 0 0 1 1 0 0 1 1 1 1 1 1 2 2 2 1 1 1 0 0 0 0 0 0 1 1 1 1 1
1 1 0 0 0 0 0 0 0 0 0 0 0 0 0 0 0 0 0 0 0 0 1 1 1 1 1 1 1 1 1 1 0 0 0 0 0 0 0 0 0 0 0 0
0 0 0 0 0 0 0 0 0 0 0 0 0 0 0 0 0 0 0 0 0 0 1 1 1 0 1 1 1 1 1 0 0 0 0 0 0 0 0 0 0 0 0 0
0 0 0 0 0 0 0 0 0 0 0 0 0 0 0 0 0 0 0 0 0 0 1 0 0 0 0 0 1 1 1 0 0 0 0 0 0 0 0 0 0 0 0 0